COSMOS 2251 DEB, 35015

Orbit data source: Space-Track

COSMOS 2251 DEB, 35015 is space debris in LEO originally from a launch on Wed, 16 Jun 1993 UTC launched from the Plesetsk Missile And Space Complex (PKMTR). The debris from Iridium 33, an American commercial communications satellite, has been tracked extensively since its accidental collision with the defunct Russian satellite Cosmos 2251 in 2009. This event, occurring at high speed in low Earth orbit (LEO), generated thousands of pieces of space debris, significantly increasing the risk of further collisions. The Iridium 33 debris cloud has impacted space traffic management and orbital debris mitigation strategies, making it a subject of ongoing study in space situational awareness.

Loading next visibility...
Identifier
35015, 1993-036AGC
Orbit
LEO
Country
Flag of CISCIS
Related business
Manufacturer
Unknown
Mission
Spacecraft
Bus & Motor
Unknown
Mass
Unknown
Launch date (UTC)
1993-06-16 (33 years ago)
Launch vehicle
Unknown
Launch site
Plesetsk Missile And Space Complex (PKMTR)
Object type
Payload
Rocket body
Debris
Shape & HBR
Unknown shape, 0.1 m
Radar Cross Section
Small (<0.1 m²)

Expand to show TLE details & history
Last TLE update: 3 days ago

TLE from 3 days ago
0 COSMOS 2251 DEB
1 35015U 93036AGC 26262.82421562  .00001713  00000-0  45039-3 0  9999
2 35015  73.9457  65.9446 0073465 230.6887 195.7783 14.48331614695087
Epoch: 2026-09-19T19:46Z
TLE epoch observation values (Epoch: 2026-09-19T19:46:52.229Z)
Latitude
61.69117°
Longitude
162.60101°
Altitude
791.599 km
Speed
7.437 km/s
True Right ascension
06h 32m 11s
True Declination
61° 32' 53"
Sunlit
Object was in daylight at epoch
Visualization orbit readout
Latitude
Unknown
Longitude
Unknown
Altitude
Unknown
Speed
Unknown
Apparent Right ascension
Unknown
Apparent Declination
Unknown
Sunlit
N/A
Visualization observer readout
Local Sidereal Time
08:25:40
Azimuth
Unknown
Elevation
Unknown
Doppler factor
Unknown
Orbital elements
Apogee altitude
780.931 km
Perigee altitude
676.51 km
Semi-major axis
7,106.858 km
Eccentricity
0.00735
Inclination
73.9457°
RAAN
65.9446°
Arg. of periapsis
230.6887°
True anomaly
195.5514°
Mean anomaly
195.7783°
Eccentric anomaly
195.66465°
Mean motion
3.62265 °/min
Orbital period
99.37 mins
BSTAR
0.00045039

Documentation

Showing up to 5 results
|